Total_Precipitation_Accumulation
0.00 0.00 0.03 0.04 0.05 0.08 0.18 0.27 0.35 0.32 0.28 0.23 0.13 0.08 0.09 0.08 0.08 0.09 0.10 0.11 0.21 0.24 0.20 0.13 0.14 0.17 0.15 0.14 0.15 0.16 0.18 0.22 0.28 0.32 0.37 0.38 0.30 0.30 0.38 0.42 0.26 0.22 0.15
0.00 0.00 0.03 0.08 0.07 0.05 0.13 0.22 0.33 0.36 0.40 0.27 0.16 0.13 0.12 0.09 0.09 0.09 0.06 0.07 0.13 0.15 0.12 0.12 0.16 0.18 0.19 0.18 0.22 0.27 0.22 0.20 0.28 0.33 0.36 0.33 0.30 0.30 0.30 0.35 0.22 0.18 0.15
0.00 0.00 0.05 0.10 0.08 0.07 0.13 0.22 0.31 0.35 0.42 0.31 0.24 0.18 0.13 0.09 0.11 0.12 0.07 0.10 0.16 0.10 0.05 0.10 0.20 0.23 0.24 0.25 0.29 0.32 0.29 0.23 0.25 0.32 0.34 0.41 0.26 0.24 0.22 0.24 0.24 0.18 0.16
0.00 0.02 0.07 0.10 0.09 0.10 0.17 0.24 0.29 0.34 0.41 0.34 0.24 0.13 0.08 0.08 0.12 0.13 0.23 0.31 0.20 0.07 0.04 0.09 0.20 0.23 0.21 0.24 0.27 0.26 0.25 0.24 0.24 0.22 0.24 0.35 0.33 0.21 0.20 0.21 0.22 0.16 0.14
0.00 0.03 0.11 0.11 0.09 0.11 0.19 0.29 0.31 0.36 0.39 0.31 0.22 0.10 0.07 0.10 0.16 0.25 0.35 0.30 0.13 0.04 0.02 0.07 0.14 0.17 0.14 0.15 0.21 0.22 0.21 0.25 0.31 0.25 0.26 0.33 0.38 0.24 0.19 0.20 0.20 0.16 0.16
0.00 0.02 0.08 0.12 0.09 0.12 0.24 0.38 0.36 0.37 0.39 0.35 0.19 0.10 0.09 0.13 0.15 0.20 0.29 0.25 0.10 0.02 0.01 0.03 0.09 0.12 0.11 0.10 0.14 0.19 0.19 0.24 0.24 0.20 0.28 0.33 0.39 0.24 0.19 0.23 0.27 0.24 0.19
0.00 0.01 0.05 0.10 0.09 0.13 0.26 0.36 0.35 0.38 0.39 0.34 0.18 0.13 0.15 0.14 0.11 0.15 0.19 0.17 0.05 0.01 0.00 0.02 0.06 0.08 0.07 0.08 0.10 0.13 0.15 0.13 0.09 0.12 0.23 0.34 0.32 0.23 0.21 0.32 0.39 0.26 0.20
0.00 0.01 0.04 0.09 0.12 0.16 0.23 0.29 0.31 0.34 0.36 0.31 0.18 0.15 0.17 0.16 0.14 0.14 0.15 0.11 0.03 0.01 0.00 0.01 0.04 0.05 0.05 0.07 0.09 0.11 0.13 0.08 0.03 0.06 0.14 0.27 0.34 0.28 0.24 0.32 0.41 0.33 0.26
0.01 0.01 0.03 0.06 0.08 0.16 0.22 0.24 0.25 0.27 0.31 0.30 0.19 0.16 0.18 0.15 0.11 0.10 0.08 0.04 0.01 0.00 0.00 0.01 0.02 0.02 0.03 0.08 0.09 0.10 0.08 0.05 0.02 0.02 0.07 0.15 0.26 0.21 0.16 0.24 0.29 0.28 0.29
0.02 0.01 0.01 0.03 0.05 0.08 0.10 0.16 0.21 0.22 0.25 0.29 0.22 0.18 0.16 0.10 0.07 0.06 0.03 0.01 0.00 0.00 0.00 0.01 0.01 0.01 0.04 0.09 0.08 0.06 0.05 0.03 0.02 0.03 0.03 0.08 0.14 0.11 0.08 0.10 0.12 0.14 0.15
0.01 0.00 0.00 0.01 0.01 0.04 0.06 0.08 0.17 0.19 0.23 0.28 0.25 0.23 0.18 0.13 0.06 0.04 0.02 0.03 0.01 0.01 0.01 0.02 0.03 0.03 0.03 0.06 0.04 0.02 0.02 0.03 0.03 0.04 0.06 0.08 0.09 0.06 0.04 0.04 0.04 0.05 0.07
0.00 0.00 0.00 0.00 0.00 0.01 0.04 0.08 0.13 0.12 0.10 0.16 0.24 0.28 0.17 0.12 0.09 0.02 0.02 0.03 0.03 0.02 0.01 0.03 0.04 0.02 0.00 0.01 0.01 0.01 0.01 0.01 0.02 0.05 0.07 0.14 0.13 0.06 0.03 0.02 0.01 0.02 0.03
0.00 0.00 0.00 0.00 0.00 0.01 0.07 0.10 0.12 0.15 0.14 0.13 0.13 0.16 0.10 0.04 0.02 0.02 0.04 0.05 0.05 0.04 0.02 0.02 0.01 0.00 0.00 0.00 0.00 0.01 0.01 0.01 0.03 0.05 0.09 0.22 0.25 0.17 0.09 0.05 0.03 0.02 0.02
0.00 0.00 0.01 0.00 0.00 0.01 0.01 0.02 0.06 0.10 0.18 0.19 0.08 0.07 0.05 0.02 0.02 0.02 0.03 0.05 0.05 0.05 0.03 0.00 0.00 0.00 0.00 0.00 0.02 0.04 0.02 0.02 0.08 0.13 0.16 0.33 0.46 0.29 0.17 0.12 0.08 0.07 0.07
0.00 0.01 0.02 0.03 0.04 0.04 0.02 0.01 0.01 0.07 0.15 0.20 0.15 0.09 0.05 0.02 0.02 0.01 0.01 0.02 0.02 0.02 0.01 0.00 0.00 0.00 0.00 0.00 0.04 0.05 0.03 0.04 0.11 0.15 0.22 0.42 0.65 0.63 0.37 0.23 0.15 0.11 0.11
0.01 0.04 0.05 0.05 0.07 0.05 0.03 0.00 0.00 0.04 0.10 0.15 0.16 0.10 0.06 0.01 0.02 0.01 0.01 0.01 0.01 0.02 0.03 0.01 0.00 0.00 0.00 0.00 0.01 0.02 0.03 0.04 0.07 0.12 0.23 0.39 0.49 0.56 0.60 0.48 0.35 0.27 0.18
0.01 0.03 0.02 0.01 0.01 0.01 0.02 0.01 0.01 0.01 0.04 0.11 0.14 0.10 0.07 0.02 0.02 0.02 0.02 0.05 0.05 0.02 0.01 0.01 0.02 0.01 0.00 0.00 0.00 0.00 0.01 0.02 0.03 0.06 0.11 0.18 0.17 0.19 0.33 0.45 0.46 0.43 0.34
0.00 0.01 0.01 0.00 0.00 0.00 0.01 0.02 0.03 0.03 0.07 0.15 0.17 0.14 0.14 0.05 0.03 0.04 0.05 0.10 0.13 0.05 0.02 0.02 0.04 0.02 0.01 0.00 0.00 0.00 0.00 0.00 0.01 0.01 0.02 0.03 0.02 0.03 0.08 0.11 0.13 0.18 0.31
0.00 0.00 0.02 0.03 0.03 0.04 0.05 0.06 0.11 0.14 0.21 0.34 0.33 0.33 0.31 0.16 0.09 0.09 0.11 0.15 0.15 0.14 0.10 0.06 0.05 0.04 0.03 0.01 0.00 0.01 0.00 0.00 0.00 0.00 0.00 0.00 0.00 0.00 0.01 0.01 0.01 0.01 0.03
0.00 0.00 0.04 0.10 0.15 0.21 0.28 0.40 0.54 0.57 0.73 0.95 0.89 0.71 0.49 0.32 0.26 0.22 0.20 0.22 0.22 0.28 0.33 0.16 0.13 0.10 0.06 0.02 0.01 0.01 0.01 0.00 0.00 0.00 0.00 0.00 0.00 0.00 0.00 0.00 0.00 0.00 0.00
0.00 0.01 0.04 0.07 0.14 0.23 0.39 0.65 0.97 1.10 1.11 1.10 1.15 1.00 0.77 0.53 0.49 0.45 0.36 0.36 0.37 0.42 0.42 0.34 0.33 0.24 0.14 0.06 0.05 0.06 0.02 0.00 0.00 0.00 0.00 0.00 0.00 0.00 0.00 0.00 0.00 0.00 0.00
0.01 0.01 0.05 0.06 0.11 0.20 0.38 0.59 0.86 1.01 0.95 0.90 0.95 0.95 0.85 0.69 0.64 0.65 0.61 0.58 0.58 0.66 0.66 0.58 0.59 0.48 0.31 0.17 0.18 0.23 0.11 0.03 0.01 0.00 0.00 0.00 0.00 0.00 0.00 0.00 0.00 0.00 0.00
0.02 0.03 0.06 0.09 0.15 0.27 0.45 0.58 0.60 0.67 0.66 0.71 0.75 0.80 0.85 0.81 0.74 0.71 0.72 0.71 0.69 0.69 0.74 0.79 0.77 0.69 0.53 0.35 0.26 0.28 0.27 0.20 0.05 0.00 0.00 0.00 0.00 0.00 0.00 0.00 0.00 0.00 0.00
0.03 0.04 0.06 0.09 0.16 0.28 0.41 0.43 0.39 0.43 0.47 0.46 0.52 0.61 0.68 0.73 0.76 0.79 0.78 0.82 0.79 0.70 0.73 0.83 0.85 0.85 0.76 0.57 0.40 0.28 0.22 0.18 0.10 0.04 0.01 0.00 0.00 0.00 0.00 0.00 0.00 0.00 0.00
0.04 0.05 0.09 0.14 0.20 0.28 0.30 0.30 0.28 0.23 0.21 0.23 0.30 0.44 0.52 0.64 0.73 0.75 0.79 0.87 0.85 0.78 0.72 0.84 0.89 0.93 0.84 0.71 0.58 0.48 0.40 0.31 0.16 0.12 0.11 0.03 0.00 0.00 0.00 0.00 0.00 0.00 0.00
0.10 0.12 0.14 0.20 0.26 0.29 0.27 0.21 0.16 0.13 0.11 0.14 0.21 0.33 0.46 0.57 0.73 0.69 0.65 0.71 0.73 0.75 0.75 0.81 0.89 0.98 0.95 0.91 0.74 0.55 0.47 0.40 0.30 0.22 0.19 0.13 0.04 0.00 0.00 0.00 0.00 0.00 0.00